,,PA_Meas_PMT16A,,PR_Meas_QMR101_102,,RH_Meas_QMH101,,SR_Meas_QMS101,,TA_Meas_QMH101,,GenWind,,GenWind,
time,status,PA,status,PR,status,RH,status,SR,status,TA,status,DirAvg,status,SpdAvg,
2011-09-19, 00:00:04,VALID,920.189,VALID,0,VALID,96.36,VALID,0,VALID,20.1513,VALID,268,VALID,0.200391,
2011-09-19, 00:01:04,VALID,920.187,VALID,0,VALID,96.3752,VALID,0,VALID,20.1108,VALID,268,VALID,0.328906,
2011-09-19, 00:02:04,VALID,920.174,VALID,0,VALID,96.36,VALID,0,VALID,20.1108,VALID,268,VALID,0.165234,
2011-09-19, 00:03:04,VALID,920.146,VALID,0,VALID,96.36,VALID,0,VALID,20.1108,VALID,268,VALID,0.206641,
2011-09-19, 00:04:04,VALID,920.139,VALID,0,VALID,96.299,VALID,0,VALID,20.1123,VALID,268,VALID,0.399219,
2011-09-19, 00:05:04,VALID,920.11,VALID,0,VALID,96.2837,VALID,0,VALID,20.0733,VALID,268,VALID,0.0929687,
2011-09-19, 00:06:04,VALID,920.093,VALID,0,VALID,96.3371,VALID,0,VALID,20.0718,VALID,268,VALID,0.605078,
2011-09-19, 00:07:04,VALID,920.047,VALID,0,VALID,96.3142,VALID,0,VALID,20.1123,VALID,319,VALID,0.9625,
2011-09-19, 00:08:04,VALID,920.065,VALID,0,VALID,96.2837,VALID,0,VALID,20.0718,VALID,66,VALID,0.534766,
2011-09-19, 00:09:04,VALID,920.036,VALID,0,VALID,96.1999,VALID,0,VALID,20.0523,VALID,66,VALID,0.411719,
2011-09-19, 00:10:04,VALID,919.991,VALID,0,VALID,96.1618,VALID,0,VALID,20.0133,VALID,66,VALID,0.0132813,
2011-09-19, 00:11:04,VALID,919.996,VALID,0,VALID,96.1923,VALID,0,VALID,20.0133,VALID,66,VALID,0.923437,
2011-09-19, 00:12:04,VALID,920.03,VALID,0,VALID,96.2761,VALID,0,VALID,20.0328,VALID,64,VALID,0.564844,
2011-09-19, 00:13:04,VALID,920.019,VALID,0,VALID,96.1618,VALID,0,VALID,20.0133,VALID,35,VALID,0.341797,
2011-09-19, 00:14:04,VALID,920.018,VALID,0,VALID,96.1923,VALID,0,VALID,20.0133,VALID,35,VALID,0.883594,
2011-09-19, 00:15:04,VALID,920.021,VALID,0,VALID,96.2228,VALID,0,VALID,20.0328,VALID,35,VALID,0.946875,
2011-09-19, 00:16:04,VALID,920.024,VALID,0,VALID,96.1541,VALID,0,VALID,20.0343,VALID,35,VALID,0.902344,
2011-09-19, 00:17:04,VALID,920.002,VALID,0,VALID,96.177,VALID,0,VALID,19.9938,VALID,35,VALID,0.971875,
2011-09-19, 00:18:04,VALID,920.014,VALID,0,VALID,96.2075,VALID,0,VALID,20.0133,VALID,35,VALID,0.814062,
2011-09-19, 00:19:04,VALID,920.011,VALID,0,VALID,96.2228,VALID,0,VALID,20.0328,VALID,35,VALID,0.332812,
2011-09-19, 00:20:04,VALID,919.989,VALID,0,VALID,96.1923,VALID,0,VALID,20.0148,VALID,35,VALID,0.191797,
2011-09-19, 00:21:04,VALID,919.954,VALID,0,VALID,96.2075,VALID,0,VALID,19.9938,VALID,35,VALID,0.276953,
2011-09-19, 00:22:04,VALID,919.948,VALID,0,VALID,96.2151,VALID,0,VALID,20.0343,VALID,35,VALID,0.175391,
2011-09-19, 00:23:04,VALID,919.941,VALID,0,VALID,96.2151,VALID,0,VALID,20.0148,VALID,35,VALID,0.155078,
2011-09-19, 00:24:04,VALID,919.922,VALID,0,VALID,96.238,VALID,0,VALID,20.0148,VALID,35,VALID,0.0488281,
2011-09-19, 00:25:04,VALID,919.914,VALID,0,VALID,96.2456,VALID,0,VALID,20.0133,VALID,35,VALID,0.124609,
2011-09-19, 00:26:04,VALID,919.868,VALID,0,VALID,96.2685,VALID,0,VALID,20.0133,VALID,35,VALID,0.212109,
2011-09-19, 00:27:04,VALID,919.895,VALID,0,VALID,96.3066,VALID,0.107441,VALID,20.0133,VALID,35,VALID,0.501562,
2011-09-19, 00:28:04,VALID,919.896,VALID,0,VALID,96.2228,VALID,0,VALID,19.9938,VALID,35,VALID,0.0121094,
2011-09-19, 00:29:04,VALID,919.862,VALID,0,VALID,96.2151,VALID,0,VALID,19.9743,VALID,35,VALID,0.408984,
2011-09-19, 00:30:04,VALID,919.888,VALID,0,VALID,96.1465,VALID,0,VALID,19.9938,VALID,35,VALID,0.285937,
2011-09-19, 00:31:04,VALID,919.85,VALID,0,VALID,96.1999,VALID,0,VALID,20.0148,VALID,35,VALID,0.279297,
2011-09-19, 00:32:04,VALID,919.831,VALID,0,VALID,96.1999,VALID,0,VALID,19.9953,VALID,35,VALID,0.255469,
2011-09-19, 00:33:04,VALID,919.826,VALID,0,VALID,96.2456,VALID,0,VALID,19.9953,VALID,35,VALID,0.201953,
2011-09-19, 00:34:04,VALID,919.797,VALID,0,VALID,96.2837,VALID,0,VALID,19.9938,VALID,35,VALID,0.213281,
2011-09-19, 00:35:04,VALID,919.783,VALID,0,VALID,96.2761,VALID,0,VALID,20.0133,VALID,35,VALID,0.800391,
2011-09-19, 00:36:04,VALID,919.762,VALID,0,VALID,96.2456,VALID,0.107441,VALID,20.0343,VALID,35,VALID,0.782812,
2011-09-19, 00:37:04,VALID,919.727,VALID,0,VALID,96.1999,VALID,0,VALID,19.9938,VALID,34,VALID,0.633594,
2011-09-19, 00:38:04,VALID,919.71,VALID,0,VALID,96.1923,VALID,0,VALID,19.9953,VALID,35,VALID,0.587891,
2011-09-19, 00:39:04,VALID,919.694,VALID,0,VALID,96.1694,VALID,0,VALID,19.9953,VALID,35,VALID,0.588672,
2011-09-19, 00:40:04,VALID,919.682,VALID,0,VALID,96.2075,VALID,0,VALID,19.9758,VALID,35,VALID,0.633203,
2011-09-19, 00:41:04,VALID,919.643,VALID,0,VALID,96.2837,VALID,0,VALID,19.9758,VALID,35,VALID,0.817578,
2011-09-19, 00:42:04,VALID,919.645,VALID,0,VALID,96.2533,VALID,0,VALID,19.9953,VALID,35,VALID,0.431641,
2011-09-19, 00:43:04,VALID,919.641,VALID,0,VALID,96.2075,VALID,0,VALID,19.9758,VALID,34,VALID,0.633594,
2011-09-19, 00:44:04,VALID,919.667,VALID,0,VALID,96.2075,VALID,0,VALID,19.9353,VALID,35,VALID,0.325,
2011-09-19, 00:45:04,VALID,919.677,VALID,0,VALID,96.2304,VALID,0,VALID,19.9563,VALID,34,VALID,0.520312,
2011-09-19, 00:46:04,VALID,919.661,VALID,0,VALID,96.2151,VALID,0,VALID,19.9158,VALID,34,VALID,0.583984,
2011-09-19, 00:47:04,VALID,919.639,VALID,0,VALID,96.2151,VALID,0,VALID,19.9158,VALID,34,VALID,0.823828,
2011-09-19, 00:48:04,VALID,919.646,VALID,0,VALID,96.2456,VALID,0,VALID,19.9173,VALID,34,VALID,0.819141,
2011-09-19, 00:49:04,VALID,919.631,VALID,0,VALID,96.2685,VALID,0,VALID,19.8768,VALID,34,VALID,0.347266,
2011-09-19, 00:50:04,VALID,919.608,VALID,0,VALID,96.4133,VALID,0,VALID,19.9173,VALID,34,VALID,0.672266,
2011-09-19, 00:51:04,VALID,919.576,VALID,0,VALID,96.4667,VALID,0,VALID,19.9548,VALID,34,VALID,0.764063,
2011-09-19, 00:52:04,VALID,919.555,VALID,0,VALID,96.3829,VALID,0,VALID,19.9353,VALID,34,VALID,0.799609,
2011-09-19, 00:53:04,VALID,919.56,VALID,0,VALID,96.3524,VALID,0,VALID,19.9173,VALID,34,VALID,0.932031,
2011-09-19, 00:54:04,VALID,919.569,VALID,0,VALID,96.36,VALID,0,VALID,19.9158,VALID,33,VALID,1.17344,
2011-09-19, 00:55:04,VALID,919.51,VALID,0,VALID,96.4591,VALID,0,VALID,19.8963,VALID,24,VALID,0.785547,
2011-09-19, 00:56:04,VALID,919.538,VALID,0,VALID,96.3981,VALID,0,VALID,19.8963,VALID,347,VALID,0.750391,
2011-09-19, 00:57:04,VALID,919.491,VALID,0,VALID,96.3829,VALID,0,VALID,19.8978,VALID,347,VALID,0.838672,
2011-09-19, 00:58:04,VALID,919.452,VALID,0,VALID,96.3905,VALID,0,VALID,19.8768,VALID,347,VALID,0.896875,
2011-09-19, 00:59:04,VALID,919.446,VALID,0,VALID,96.3676,VALID,0,VALID,19.8768,VALID,347,VALID,0.207422,
2011-09-19, 01:00:04,VALID,919.414,VALID,0,VALID,96.4286,VALID,0,VALID,19.8963,VALID,347,VALID,0.359766,
2011-09-19, 01:01:04,VALID,919.374,VALID,0,VALID,96.4819,VALID,0,VALID,19.8963,VALID,347,VALID,0.295703,
2011-09-19, 01:02:04,VALID,919.361,VALID,0,VALID,96.5277,VALID,0,VALID,19.9158,VALID,347,VALID,1.02695,
2011-09-19, 01:03:04,VALID,919.332,VALID,0,VALID,96.5582,VALID,0,VALID,19.9563,VALID,18,VALID,0.744141,
2011-09-19, 01:04:04,VALID,919.357,VALID,0,VALID,96.5582,VALID,0,VALID,19.9758,VALID,19,VALID,0.685938,
2011-09-19, 01:05:04,VALID,919.33,VALID,0,VALID,96.5429,VALID,0,VALID,19.9548,VALID,18,VALID,1.05664,
2011-09-19, 01:06:04,VALID,919.322,VALID,0,VALID,96.4896,VALID,0,VALID,19.9353,VALID,358,VALID,0.90625,
2011-09-19, 01:07:04,VALID,919.307,VALID,0,VALID,96.5353,VALID,0,VALID,19.9563,VALID,360,VALID,0.826953,
2011-09-19, 01:08:04,VALID,919.271,VALID,0,VALID,96.5734,VALID,0,VALID,19.9563,VALID,33,VALID,1.27227,
2011-09-19, 01:09:04,VALID,919.266,VALID,0,VALID,96.5887,VALID,0,VALID,19.9563,VALID,33,VALID,1.08867,
2011-09-19, 01:10:04,VALID,919.25,VALID,0,VALID,96.5506,VALID,0,VALID,19.9173,VALID,13,VALID,1.08867,
2011-09-19, 01:11:04,VALID,919.262,VALID,0,VALID,96.5811,VALID,0,VALID,19.8963,VALID,5,VALID,0.8875,
2011-09-19, 01:12:04,VALID,919.207,VALID,0,VALID,96.6344,VALID,0,VALID,19.9158,VALID,359,VALID,0.880078,
2011-09-19, 01:13:04,VALID,919.215,VALID,0,VALID,96.6497,VALID,0,VALID,19.9173,VALID,358,VALID,1.10156,
2011-09-19, 01:14:04,VALID,919.197,VALID,0,VALID,96.7107,VALID,0,VALID,19.9368,VALID,359,VALID,1.03086,
2011-09-19, 01:15:04,VALID,919.151,VALID,0,VALID,96.6192,VALID,0,VALID,19.9173,VALID,359,VALID,1.3125,
2011-09-19, 01:16:04,VALID,919.188,VALID,0,VALID,96.6268,VALID,0,VALID,19.8768,VALID,15,VALID,1.20859,
2011-09-19, 01:17:04,VALID,919.133,VALID,0,VALID,96.5887,VALID,0,VALID,19.8783,VALID,5,VALID,1.37031,
2011-09-19, 01:18:04,VALID,919.138,VALID,0,VALID,96.6497,VALID,0,VALID,19.8783,VALID,29,VALID,1.18828,
2011-09-19, 01:19:04,VALID,919.13,VALID,0,VALID,96.5887,VALID,0,VALID,19.8588,VALID,28,VALID,1.05703,
2011-09-19, 01:20:04,VALID,919.097,VALID,0,VALID,96.6115,VALID,0.107441,VALID,19.8393,VALID,359,VALID,1.04453,
2011-09-19, 01:21:04,VALID,919.097,VALID,0,VALID,96.6725,VALID,0,VALID,19.8393,VALID,360,VALID,1.02695,
2011-09-19, 01:22:04,VALID,919.046,VALID,0,VALID,96.7107,VALID,0,VALID,19.8588,VALID,360,VALID,0.738672,
2011-09-19, 01:23:04,VALID,919.05,VALID,0,VALID,96.6573,VALID,0,VALID,19.8393,VALID,14,VALID,0.682813,
2011-09-19, 01:24:04,VALID,919.083,VALID,0,VALID,96.6954,VALID,0,VALID,19.8588,VALID,34,VALID,0.840234,
2011-09-19, 01:25:04,VALID,919.052,VALID,0,VALID,96.6649,VALID,0,VALID,19.8393,VALID,29,VALID,1.00039,
2011-09-19, 01:26:04,VALID,919.044,VALID,0,VALID,96.7107,VALID,0,VALID,19.8393,VALID,40,VALID,1.25352,
2011-09-19, 01:27:04,VALID,919.05,VALID,0,VALID,96.8174,VALID,0,VALID,19.8588,VALID,26,VALID,1.20859,
2011-09-19, 01:28:04,VALID,919.021,VALID,0,VALID,96.7335,VALID,0,VALID,19.8588,VALID,8,VALID,1.02813,
2011-09-19, 01:29:04,VALID,919.024,VALID,0,VALID,96.7259,VALID,0,VALID,19.8393,VALID,27,VALID,1.62695,
2011-09-19, 01:30:04,VALID,918.976,VALID,0,VALID,96.7488,VALID,0,VALID,19.8588,VALID,36,VALID,1.22031,
2011-09-19, 01:31:04,VALID,918.979,VALID,0,VALID,96.7335,VALID,0,VALID,19.8588,VALID,37,VALID,0.572656,
2011-09-19, 01:32:04,VALID,918.959,VALID,0,VALID,96.7564,VALID,0,VALID,19.8588,VALID,36,VALID,0.938281,
2011-09-19, 01:33:04,VALID,918.933,VALID,0,VALID,96.6649,VALID,0,VALID,19.8393,VALID,352,VALID,1.53945,
2011-09-19, 01:34:04,VALID,918.947,VALID,0,VALID,96.6954,VALID,0,VALID,19.8198,VALID,10,VALID,1.34219,
2011-09-19, 01:35:04,VALID,918.97,VALID,0,VALID,96.6802,VALID,0,VALID,19.7808,VALID,15,VALID,1.21758,
2011-09-19, 01:36:04,VALID,918.952,VALID,0,VALID,96.6725,VALID,0,VALID,19.7808,VALID,352,VALID,1.12266,
2011-09-19, 01:37:04,VALID,918.956,VALID,0,VALID,96.7411,VALID,0,VALID,19.8003,VALID,35,VALID,0.521875,
2011-09-19, 01:38:04,VALID,918.965,VALID,0,VALID,96.7411,VALID,0,VALID,19.8198,VALID,356,VALID,1.1043,
2011-09-19, 01:39:04,VALID,918.929,VALID,0,VALID,96.7183,VALID,0,VALID,19.7988,VALID,357,VALID,0.627734,
2011-09-19, 01:40:04,VALID,918.95,VALID,0,VALID,96.7183,VALID,0,VALID,19.8003,VALID,6,VALID,0.771094,
2011-09-19, 01:41:04,VALID,918.915,VALID,0,VALID,96.7945,VALID,0,VALID,19.8198,VALID,5,VALID,0.849219,
2011-09-19, 01:42:04,VALID,918.93,VALID,0,VALID,96.7716,VALID,0,VALID,19.8393,VALID,26,VALID,1.47969,
2011-09-19, 01:43:04,VALID,918.938,VALID,0,VALID,96.8021,VALID,0,VALID,19.8393,VALID,26,VALID,0.975781,
2011-09-19, 01:44:04,VALID,918.917,VALID,0,VALID,96.8174,VALID,0,VALID,19.8573,VALID,26,VALID,1.38516,
2011-09-19, 01:45:04,VALID,918.894,VALID,0,VALID,96.7335,VALID,0,VALID,19.8588,VALID,26,VALID,1.35859,
2011-09-19, 01:46:04,VALID,918.878,VALID,0,VALID,96.6954,VALID,0,VALID,19.7988,VALID,9,VALID,1.55586,
2011-09-19, 01:47:04,VALID,918.883,VALID,0,VALID,96.7335,VALID,0,VALID,19.7793,VALID,352,VALID,0.570313,
2011-09-19, 01:48:04,VALID,918.824,VALID,0,VALID,96.7793,VALID,0,VALID,19.7988,VALID,354,VALID,0.661719,
2011-09-19, 01:49:04,VALID,918.852,VALID,0,VALID,96.8326,VALID,0,VALID,19.8393,VALID,50,VALID,0.965234,
2011-09-19, 01:50:04,VALID,918.885,VALID,0,VALID,96.8555,VALID,0,VALID,19.8183,VALID,38,VALID,0.964453,
2011-09-19, 01:51:04,VALID,918.849,VALID,0,VALID,96.825,VALID,0,VALID,19.8183,VALID,16,VALID,1.1832,
2011-09-19, 01:52:04,VALID,918.877,VALID,0,VALID,96.8631,VALID,0,VALID,19.8378,VALID,35,VALID,1.36289,
2011-09-19, 01:53:04,VALID,918.886,VALID,0,VALID,96.8403,VALID,0,VALID,19.8393,VALID,31,VALID,1.21172,
2011-09-19, 01:54:04,VALID,918.893,VALID,0,VALID,96.8403,VALID,0,VALID,19.8393,VALID,31,VALID,0.780859,
2011-09-19, 01:55:04,VALID,918.896,VALID,0,VALID,96.8174,VALID,0,VALID,19.8393,VALID,26,VALID,0.738281,
2011-09-19, 01:56:04,VALID,918.902,VALID,0,VALID,96.825,VALID,0,VALID,19.8393,VALID,24,VALID,1.02188,
2011-09-19, 01:57:04,VALID,918.846,VALID,0,VALID,96.7869,VALID,0.107441,VALID,19.7988,VALID,31,VALID,1.27305,
2011-09-19, 01:58:04,VALID,918.863,VALID,0,VALID,96.7945,VALID,0,VALID,19.7793,VALID,26,VALID,1.08242,
2011-09-19, 01:59:04,VALID,918.834,VALID,0,VALID,96.8479,VALID,0,VALID,19.7988,VALID,32,VALID,0.835156,
2011-09-19, 02:00:04,VALID,918.829,VALID,0,VALID,96.8555,VALID,0,VALID,19.8393,VALID,33,VALID,0.733203,
2011-09-19, 02:01:04,VALID,918.81,VALID,0,VALID,96.7335,VALID,0.107441,VALID,19.8198,VALID,33,VALID,1.2918,
2011-09-19, 02:02:04,VALID,918.837,VALID,0,VALID,96.8021,VALID,0,VALID,19.8003,VALID,33,VALID,0.811719,
2011-09-19, 02:03:04,VALID,918.807,VALID,0,VALID,96.8174,VALID,0,VALID,19.7988,VALID,33,VALID,0.907812,
2011-09-19, 02:04:04,VALID,918.809,VALID,0,VALID,96.8403,VALID,0,VALID,19.8198,VALID,45,VALID,0.8375,
2011-09-19, 02:05:04,VALID,918.817,VALID,0,VALID,96.8021,VALID,0,VALID,19.8003,VALID,27,VALID,1.29102,
2011-09-19, 02:06:04,VALID,918.82,VALID,0,VALID,96.7945,VALID,0,VALID,19.8198,VALID,36,VALID,1.29141,
2011-09-19, 02:07:04,VALID,918.819,VALID,0,VALID,96.7716,VALID,0,VALID,19.8198,VALID,36,VALID,1.41055,
2011-09-19, 02:08:04,VALID,918.856,VALID,0,VALID,96.7716,VALID,0,VALID,19.8393,VALID,36,VALID,1.06719,
2011-09-19, 02:09:04,VALID,918.835,VALID,0,VALID,96.703,VALID,0,VALID,19.8198,VALID,36,VALID,1.14063,
2011-09-19, 02:10:04,VALID,918.83,VALID,0,VALID,96.703,VALID,0,VALID,19.8198,VALID,35,VALID,0.849219,
2011-09-19, 02:11:04,VALID,918.828,VALID,0,VALID,96.7411,VALID,0,VALID,19.8003,VALID,36,VALID,0.730469,
2011-09-19, 02:12:04,VALID,918.796,VALID,0,VALID,96.7335,VALID,0,VALID,19.7988,VALID,36,VALID,0.716016,
2011-09-19, 02:13:04,VALID,918.766,VALID,0,VALID,96.6268,VALID,0,VALID,19.8198,VALID,35,VALID,1.00625,
2011-09-19, 02:14:04,VALID,918.758,VALID,0,VALID,96.7107,VALID,0,VALID,19.8198,VALID,23,VALID,1.28828,
2011-09-19, 02:15:04,VALID,918.753,VALID,0,VALID,96.5963,VALID,0,VALID,19.7598,VALID,23,VALID,1.39258,
2011-09-19, 02:16:04,VALID,918.736,VALID,0,VALID,96.6344,VALID,0,VALID,19.7808,VALID,27,VALID,1.18477,
2011-09-19, 02:17:04,VALID,918.728,VALID,0,VALID,96.642,VALID,0,VALID,19.7808,VALID,28,VALID,1.08945,
2011-09-19, 02:18:04,VALID,918.724,VALID,0,VALID,96.7183,VALID,0,VALID,19.8003,VALID,28,VALID,1.00508,
2011-09-19, 02:19:04,VALID,918.689,VALID,0,VALID,96.703,VALID,0,VALID,19.8198,VALID,28,VALID,1.37617,
2011-09-19, 02:20:04,VALID,918.688,VALID,0,VALID,96.6573,VALID,0,VALID,19.7808,VALID,28,VALID,1.19844,
2011-09-19, 02:21:04,VALID,918.692,VALID,0,VALID,96.7335,VALID,0,VALID,19.7793,VALID,28,VALID,0.940625,
2011-09-19, 02:22:04,VALID,918.641,VALID,0,VALID,96.6725,VALID,0,VALID,19.8003,VALID,28,VALID,1.65195,
2011-09-19, 02:23:04,VALID,918.684,VALID,0,VALID,96.7107,VALID,0,VALID,19.7598,VALID,28,VALID,1.25039,
2011-09-19, 02:24:04,VALID,918.637,VALID,0,VALID,96.7335,VALID,0,VALID,19.7808,VALID,28,VALID,1.2793,
2011-09-19, 02:25:04,VALID,918.63,VALID,0,VALID,96.7716,VALID,0,VALID,19.8003,VALID,28,VALID,1.31172,
2011-09-19, 02:26:04,VALID,918.645,VALID,0,VALID,96.6954,VALID,0,VALID,19.7613,VALID,28,VALID,0.840625,
2011-09-19, 02:27:04,VALID,918.616,VALID,0,VALID,96.6649,VALID,0.107441,VALID,19.7013,VALID,302,VALID,0.64375,
2011-09-19, 02:28:04,VALID,918.593,VALID,0,VALID,96.7411,VALID,0,VALID,19.7223,VALID,23,VALID,1.28437,
2011-09-19, 02:29:04,VALID,918.565,VALID,0,VALID,96.7716,VALID,0.107441,VALID,19.7013,VALID,22,VALID,0.404297,
2011-09-19, 02:30:04,VALID,918.56,VALID,0,VALID,96.8174,VALID,0.107441,VALID,19.7208,VALID,23,VALID,0.462109,
2011-09-19, 02:31:04,VALID,918.578,VALID,0,VALID,96.7793,VALID,0,VALID,19.7208,VALID,22,VALID,0.805078,
2011-09-19, 02:32:04,VALID,918.539,VALID,0,VALID,96.7945,VALID,0,VALID,19.7418,VALID,22,VALID,0.474609,
2011-09-19, 02:33:04,VALID,918.511,VALID,0,VALID,96.7869,VALID,0,VALID,19.7418,VALID,22,VALID,0.494531,
2011-09-19, 02:34:04,VALID,918.507,VALID,0,VALID,96.825,VALID,0,VALID,19.7418,VALID,22,VALID,0.722266,
2011-09-19, 02:35:04,VALID,918.506,VALID,0,VALID,96.8326,VALID,0,VALID,19.7613,VALID,23,VALID,0.63125,
2011-09-19, 02:36:04,VALID,918.482,VALID,0,VALID,96.8479,VALID,0,VALID,19.7613,VALID,4,VALID,1.45859,
2011-09-19, 02:37:04,VALID,918.409,VALID,0,VALID,96.7564,VALID,0,VALID,19.7418,VALID,38,VALID,1.33281,
2011-09-19, 02:38:04,VALID,918.418,VALID,0,VALID,96.8021,VALID,0,VALID,19.7613,VALID,30,VALID,1.35781,
2011-09-19, 02:39:04,VALID,918.372,VALID,0,VALID,96.825,VALID,0,VALID,19.7613,VALID,31,VALID,1.36367,
2011-09-19, 02:40:04,VALID,918.347,VALID,0,VALID,96.8098,VALID,0,VALID,19.7613,VALID,31,VALID,1.12383,
2011-09-19, 02:41:04,VALID,918.398,VALID,0,VALID,96.7945,VALID,0,VALID,19.7613,VALID,31,VALID,1.01445,
2011-09-19, 02:42:04,VALID,918.373,VALID,0,VALID,96.7716,VALID,0,VALID,19.7418,VALID,31,VALID,1.16719,
2011-09-19, 02:43:04,VALID,918.392,VALID,0,VALID,96.7869,VALID,0,VALID,19.7223,VALID,29,VALID,1.31953,
2011-09-19, 02:44:04,VALID,918.393,VALID,0,VALID,96.8021,VALID,0,VALID,19.7013,VALID,24,VALID,1.20977,
2011-09-19, 02:45:04,VALID,918.397,VALID,0,VALID,96.8479,VALID,0,VALID,19.6818,VALID,25,VALID,1.22148,
2011-09-19, 02:46:05,VALID,918.353,VALID,0,VALID,96.7564,VALID,0,VALID,19.6833,VALID,23,VALID,1.50273,
2011-09-19, 02:47:05,VALID,918.353,VALID,0,VALID,96.6573,VALID,0,VALID,19.5843,VALID,12,VALID,1.54297,
2011-09-19, 02:48:05,VALID,918.357,VALID,0,VALID,96.7183,VALID,0,VALID,19.5858,VALID,42,VALID,1.44844,
2011-09-19, 02:49:05,VALID,918.336,VALID,0,VALID,96.5811,VALID,0.107441,VALID,19.4673,VALID,2,VALID,1.26094,
2011-09-19, 02:50:05,VALID,918.318,VALID,0,VALID,96.5811,VALID,0.107441,VALID,19.4673,VALID,6,VALID,1.14336,
2011-09-19, 02:51:05,VALID,918.3,VALID,0,VALID,96.5811,VALID,0,VALID,19.4478,VALID,6,VALID,0.863672,
2011-09-19, 02:52:05,VALID,918.28,VALID,0,VALID,96.5734,VALID,0.107441,VALID,19.4478,VALID,26,VALID,1.28555,
2011-09-19, 02:53:05,VALID,918.274,VALID,0,VALID,96.3981,VALID,0,VALID,19.3893,VALID,14,VALID,1.43047,
2011-09-19, 02:54:05,VALID,918.25,VALID,0,VALID,96.3829,VALID,0,VALID,19.3908,VALID,22,VALID,1.54961,
2011-09-19, 02:55:05,VALID,918.26,VALID,0,VALID,96.2914,VALID,0,VALID,19.3698,VALID,3,VALID,1.57383,
2011-09-19, 02:56:05,VALID,918.265,VALID,0,VALID,96.2151,VALID,0,VALID,19.3323,VALID,5,VALID,0.871484,
2011-09-19, 02:57:05,VALID,918.232,VALID,0,VALID,96.0855,VALID,0,VALID,19.2918,VALID,5,VALID,1.30234,
2011-09-19, 02:58:05,VALID,918.2,VALID,0,VALID,95.9941,VALID,0,VALID,19.2543,VALID,339,VALID,1.76016,
2011-09-19, 02:59:05,VALID,918.198,VALID,0,VALID,95.8873,VALID,0,VALID,19.2153,VALID,360,VALID,0.941797,
2011-09-19, 03:00:05,VALID,918.191,VALID,0,VALID,95.8797,VALID,0,VALID,19.1944,VALID,1,VALID,1.27305,
2011-09-19, 03:01:05,VALID,918.193,VALID,0,VALID,95.8492,VALID,0,VALID,19.2153,VALID,1,VALID,1.12266,
2011-09-19, 03:02:05,VALID,918.148,VALID,0,VALID,95.8645,VALID,0,VALID,19.1958,VALID,360,VALID,1.34844,
2011-09-19, 03:03:05,VALID,918.147,VALID,0,VALID,95.895,VALID,0,VALID,19.1763,VALID,4,VALID,1.95977,
2011-09-19, 03:04:05,VALID,918.145,VALID,0,VALID,96.0017,VALID,0,VALID,19.1958,VALID,18,VALID,1.2875,
2011-09-19, 03:05:05,VALID,918.143,VALID,0,VALID,95.7044,VALID,0,VALID,19.0983,VALID,2,VALID,1.68633,
2011-09-19, 03:06:05,VALID,918.119,VALID,0,VALID,95.6586,VALID,0,VALID,19.0969,VALID,19,VALID,1.41797,
2011-09-19, 03:07:05,VALID,918.154,VALID,0,VALID,95.7425,VALID,0,VALID,19.1568,VALID,6,VALID,1.07852,
2011-09-19, 03:08:05,VALID,918.12,VALID,0,VALID,95.8111,VALID,0,VALID,19.1373,VALID,17,VALID,1.69766,
2011-09-19, 03:09:05,VALID,918.106,VALID,0,VALID,95.7501,VALID,0,VALID,19.1178,VALID,359,VALID,1.76641,
2011-09-19, 03:10:05,VALID,918.071,VALID,0,VALID,95.7882,VALID,0,VALID,19.0788,VALID,7,VALID,2.24883,
2011-09-19, 03:11:05,VALID,918.092,VALID,0,VALID,95.8568,VALID,0,VALID,19.0398,VALID,7,VALID,1.87539,
2011-09-19, 03:12:05,VALID,918.063,VALID,0,VALID,95.9407,VALID,0,VALID,19.0189,VALID,26,VALID,2.2457,
2011-09-19, 03:13:05,VALID,918.05,VALID,0,VALID,95.9026,VALID,0,VALID,19.0008,VALID,25,VALID,2.50156,
2011-09-19, 03:14:05,VALID,918.069,VALID,0,VALID,95.8873,VALID,0,VALID,18.9814,VALID,349,VALID,1.98008,
2011-09-19, 03:15:05,VALID,918.048,VALID,0,VALID,96.0322,VALID,0,VALID,19.0008,VALID,46,VALID,1.28437,
2011-09-19, 03:16:05,VALID,918.055,VALID,0,VALID,96.0398,VALID,0,VALID,18.9814,VALID,26,VALID,1.46953,
2011-09-19, 03:17:05,VALID,918.072,VALID,0,VALID,95.9712,VALID,0,VALID,18.9619,VALID,5,VALID,1.60508,
2011-09-19, 03:18:05,VALID,918.061,VALID,0,VALID,95.834,VALID,0,VALID,18.9229,VALID,10,VALID,1.88906,
2011-09-19, 03:19:05,VALID,918.083,VALID,0,VALID,95.8492,VALID,0,VALID,18.9424,VALID,352,VALID,0.862891,
2011-09-19, 03:20:05,VALID,918.105,VALID,0,VALID,95.8721,VALID,0,VALID,18.9229,VALID,12,VALID,1.075,
2011-09-19, 03:21:05,VALID,918.092,VALID,0,VALID,95.8568,VALID,0,VALID,18.9424,VALID,20,VALID,0.873047,
2011-09-19, 03:22:05,VALID,918.097,VALID,0,VALID,95.9331,VALID,0,VALID,18.9619,VALID,21,VALID,1.02188,
2011-09-19, 03:23:05,VALID,918.077,VALID,0,VALID,95.9559,VALID,0,VALID,18.9619,VALID,15,VALID,0.683594,
2011-09-19, 03:24:05,VALID,918.091,VALID,0,VALID,95.834,VALID,0,VALID,18.9424,VALID,359,VALID,0.641016,
2011-09-19, 03:25:05,VALID,918.082,VALID,0,VALID,95.773,VALID,0,VALID,18.9424,VALID,18,VALID,1.09141,
2011-09-19, 03:26:05,VALID,918.087,VALID,0,VALID,95.6662,VALID,0,VALID,18.9034,VALID,18,VALID,1.35938,
2011-09-19, 03:27:05,VALID,918.078,VALID,0,VALID,95.5824,VALID,0.107441,VALID,18.9034,VALID,353,VALID,0.850781,
2011-09-19, 03:28:05,VALID,918.069,VALID,0,VALID,95.5595,VALID,0,VALID,18.9034,VALID,353,VALID,0.997656,
2011-09-19, 03:29:05,VALID,918.04,VALID,0,VALID,95.4757,VALID,0,VALID,18.9034,VALID,9,VALID,1.36563,
2011-09-19, 03:30:05,VALID,918.054,VALID,0,VALID,95.3918,VALID,0,VALID,18.8839,VALID,346,VALID,1.15664,
2011-09-19, 03:31:05,VALID,918.028,VALID,0,VALID,95.3079,VALID,0,VALID,18.8839,VALID,338,VALID,0.899219,
2011-09-19, 03:32:05,VALID,918.049,VALID,0,VALID,95.125,VALID,0,VALID,18.8644,VALID,338,VALID,0.971484,
2011-09-19, 03:33:05,VALID,918.034,VALID,0,VALID,94.9649,VALID,0,VALID,18.8449,VALID,335,VALID,1.57891,
2011-09-19, 03:34:05,VALID,918.054,VALID,0,VALID,94.7362,VALID,0,VALID,18.8449,VALID,333,VALID,1.09375,
2011-09-19, 03:35:05,VALID,918.028,VALID,0,VALID,94.6981,VALID,0,VALID,18.8644,VALID,346,VALID,1.50469,
2011-09-19, 03:36:05,VALID,918.024,VALID,0,VALID,94.5837,VALID,0,VALID,18.8644,VALID,347,VALID,0.857813,
2011-09-19, 03:37:05,VALID,918.021,VALID,0,VALID,94.4541,VALID,0,VALID,18.8644,VALID,347,VALID,0.773828,
2011-09-19, 03:38:05,VALID,917.96,VALID,0,VALID,94.5304,VALID,0,VALID,18.8839,VALID,347,VALID,0.664453,
2011-09-19, 03:39:05,VALID,917.936,VALID,0,VALID,94.5913,VALID,0,VALID,18.8839,VALID,347,VALID,0.490234,
2011-09-19, 03:40:05,VALID,917.946,VALID,0,VALID,94.7438,VALID,0,VALID,18.9034,VALID,347,VALID,0.145313,
2011-09-19, 03:41:05,VALID,917.917,VALID,0,VALID,94.5685,VALID,0,VALID,18.8629,VALID,347,VALID,0.512109,
2011-09-19, 03:42:05,VALID,917.921,VALID,0,VALID,94.6066,VALID,0,VALID,18.8839,VALID,347,VALID,0.447656,
2011-09-19, 03:43:05,VALID,917.907,VALID,0,VALID,94.6981,VALID,0,VALID,18.8839,VALID,347,VALID,0.808203,
2011-09-19, 03:44:05,VALID,917.922,VALID,0,VALID,94.5456,VALID,0,VALID,18.8839,VALID,347,VALID,1.05195,
2011-09-19, 03:45:05,VALID,917.908,VALID,0,VALID,94.3321,VALID,0,VALID,18.8644,VALID,347,VALID,1.57695,
2011-09-19, 03:46:05,VALID,917.937,VALID,0,VALID,94.0882,VALID,0,VALID,18.8644,VALID,346,VALID,1.03203,